Regional Weather Roundup
Issued by NWS

Home | Current Version | Previous Version | Graphics & Text | Print | Product List | Glossary On
Versions: 1 2 3 4 5 6 7 8 9 10 11 12 13 14 15 16 17 18 19 20 21 22 23 24 25 26 27 28 29 30 31 32 33 34 35 36 37 38 39 40 41 42 43 44 45 46 47 48 49 50
606
ASUS43 KOAX 231302
RWRNE

WEATHER ROUNDUP FOR NEBRASKA
NATIONAL WEATHER SERVICE OMAHA NE
800 AM CDT MON APR 23 2018

NOTES: SATELLITE DATA IS BEING USED TO AUGMENT CLOUD COVER ABOVE
       12000 FEET.
       "FAIR" INDICATES FEW OR NO CLOUDS BELOW 12,000 FEET WITH NO
       SIGNIFICANT WEATHER AND/OR OBSTRUCTIONS TO VISIBILITY.


NEZ001>004-019>022-054>056-231400-
NEBRASKA PANHANDLE

CITY           SKY/WX    TMP DP  RH WIND       PRES   REMARKS
SCOTTSBLUFF    CLEAR     38  36  92 E12       30.10S WCI  30
ALLIANCE       SUNNY     35  35 100 SE7       30.11R WCI  29
CHADRON        SUNNY     41  37  86 CALM      30.09R
GORDON         FAIR      35  33  92 CALM      30.12R
KIMBALL        CLEAR     33  32  99 CALM      30.11R
SIDNEY         SUNNY     39  33  79 S8        30.11S WCI  33
$$

NEZ057>060-069>072-079>082-231400-
SOUTHWEST NEBRASKA

CITY           SKY/WX    TMP DP  RH WIND       PRES   REMARKS
NORTH PLATTE   SUNNY     35  33  92 SE5       30.17S FOG     WCI  31
IMPERIAL       SUNNY     38  37  97 S6        30.17R WCI  33
LEXINGTON      MOSUNNY   40  38  91 CALM      30.19R FOG
MCCOOK         SUNNY     35  34  96 CALM      30.18R FOG
OGALLALA       SUNNY     34  33  96 CALM      30.17R FOG
$$

NEZ005>010-023>029-035>040-094-231400-
NORTH CENTRAL NEBRASKA

CITY           SKY/WX    TMP DP  RH WIND       PRES   REMARKS
VALENTINE      MOSUNNY   39  37  92 CALM      30.16S
AINSWORTH      SUNNY     41  39  95 S6        30.17S
BROKEN BOW     MOSUNNY   38  36  92 CALM      30.18R
O`NEILL        MOSUNNY   44  40  83 CALM      30.19S
ORD            MOSUNNY   36  34  92 CALM      30.19R
THEDFORD       SUNNY     37  37  98 CALM      30.18R FOG
$$

NEZ041-046>049-061>064-073>077-083>087-231400-
SOUTH CENTRAL NEBRASKA

CITY           SKY/WX    TMP DP  RH WIND       PRES   REMARKS
GRAND ISLAND   SUNNY     46  39  76 NE6       30.20R
AURORA         SUNNY     43  34  70 W3        30.19R
HASTINGS       SUNNY     44  40  85 CALM      30.19R
HEBRON         SUNNY     42  36  80 CALM      30.19R
HOLDREGE       SUNNY     40  39  97 CALM      30.19R FOG
KEARNEY        SUNNY     42  38  85 NW3       30.20R
YORK             N/A     41  36  81 CALM      30.19S
$$

NEZ011>018-030>034-042>045-231400-
NORTHEAST NEBRASKA

CITY           SKY/WX    TMP DP  RH WIND       PRES   REMARKS
NORFOLK        SUNNY     41  35  79 NW5       30.20R
ALBION         SUNNY     41  36  81 CALM      30.20S
BLAIR          SUNNY     46  33  59 NE6       30.20R
COLUMBUS       SUNNY     43  33  68 E3        30.20S
FREMONT        SUNNY     44  34  68 CALM      30.21R
TEKAMAH        SUNNY     40  37  89 N7        30.21R
WAYNE          SUNNY     35  34  96 CALM      30.21R
$$

NEZ050>053-065>068-078-088>093-231400-
SOUTHEAST NEBRASKA

CITY           SKY/WX    TMP DP  RH WIND       PRES   REMARKS
LINCOLN        SUNNY     41  33  73 N6        30.21R
OMAHA EPPLEY   MOSUNNY   42  31  64 N7        30.20R
BEATRICE       SUNNY     44  37  74 CALM      30.18S
FALLS CITY     PTSUNNY   43  33  68 NW6       30.16R
NEBRASKA CITY  SUNNY     49  33  53 N3        30.19R
$$

NEZ044-045-051>053-067-231400-
OMAHA AREA

CITY           SKY/WX    TMP DP  RH WIND       PRES   REMARKS
OMAHA EPPLEY   MOSUNNY   42  31  64 N7        30.20R
BLAIR          SUNNY     46  33  59 NE6       30.20R
FREMONT        SUNNY     44  34  68 CALM      30.21R
MILLARD        SUNNY     47  35  64 W3        30.20S
OFFUTT AFB     SUNNY     44  33  64 N5        30.19R
WAHOO          FAIR      44  31  60 N5        30.21R
$$




USA.gov is the U.S. government's official web portal to all federal, state and local government web resources and services.